Theta_e
310 309 309 308 308 309 311 311 312 314 315 316 316 316 316 317 318 319 319 319 319 319 318 317 317 317 316 316 318 318 317 318 319 318 320 320 319 320 322 326 328 328 328 327 324 325 329 336 334 334 341 343 343 340 337 341 344 348 358 351 331 330 331 333 344 348 351 356 354 352 354 358 357 353 349 351 353 355 358 355 355 356 356 358 357 357 357 357
311 310 308 308 309 310 311 312 313 314 315 316 317 316 317 317 318 318 318 318 319 319 319 318 317 317 316 317 317 317 318 319 321 323 323 319 321 321 319 321 325 328 329 326 324 326 332 338 334 338 349 346 339 337 332 331 339 354 356 343 332 333 332 335 347 348 353 355 352 352 354 356 356 352 351 356 356 360 367 359 357 359 358 358 356 357 357 357
312 311 309 309 309 310 311 313 314 314 316 318 318 318 317 317 317 317 318 319 319 319 318 318 318 317 317 317 318 317 319 322 324 325 321 318 320 320 319 320 324 328 327 327 324 324 329 332 332 340 349 344 336 333 331 331 337 342 345 341 331 333 338 342 349 349 351 351 353 352 351 353 352 350 354 359 357 362 369 360 360 362 360 358 356 356 357 358
313 311 309 309 309 310 311 313 314 315 316 317 318 319 318 317 317 316 318 319 319 318 318 318 317 317 316 316 318 318 319 323 322 319 321 323 322 319 319 320 325 328 328 327 324 327 333 334 336 343 345 346 342 332 327 334 336 330 334 337 326 333 348 347 347 350 350 350 354 354 353 354 350 351 357 357 357 363 364 358 360 361 359 358 356 356 358 358
310 310 309 309 309 310 311 312 314 315 316 318 319 320 319 319 317 317 318 319 318 318 318 317 317 316 316 316 317 319 320 320 319 324 330 331 328 322 318 318 323 328 328 327 325 330 335 337 344 348 344 344 342 333 328 328 329 325 326 329 329 342 351 344 346 352 350 351 354 354 354 354 351 354 354 356 365 368 362 356 356 357 357 357 355 356 358 358
308 307 308 309 309 310 311 312 314 316 317 318 320 321 321 320 319 318 318 318 318 318 317 316 315 315 316 316 318 320 321 318 322 328 332 334 331 327 321 318 321 325 328 328 326 333 340 343 350 352 345 340 333 328 327 322 323 328 325 324 329 344 350 344 348 353 351 354 355 354 353 357 361 360 356 361 363 359 356 355 354 355 355 356 356 357 358 358
307 306 307 308 309 309 310 312 314 316 318 318 320 322 321 320 319 319 318 318 317 316 316 314 314 314 316 319 319 320 323 323 323 324 327 330 329 328 324 318 319 324 326 327 331 343 349 346 347 346 341 335 330 324 325 323 324 328 327 330 335 344 349 347 351 352 353 356 356 356 357 362 367 363 360 361 357 354 355 355 353 354 356 355 356 356 357 358
306 306 307 308 309 309 310 311 313 316 317 318 320 322 322 322 320 320 319 317 316 316 314 312 313 314 317 320 321 321 325 324 321 321 323 327 328 327 324 320 320 322 327 327 333 345 347 342 342 339 335 334 329 325 326 326 326 328 326 331 340 346 349 349 351 354 355 357 357 360 363 362 361 360 360 358 357 357 356 354 354 355 356 356 356 357 358 358
305 306 307 307 308 309 309 311 313 316 317 318 321 322 322 322 321 320 318 317 316 314 313 312 313 313 318 323 324 320 322 322 321 321 324 327 325 324 325 320 320 323 327 331 334 337 336 337 339 335 334 335 329 325 327 328 326 324 325 333 342 348 350 351 354 356 357 356 358 364 364 360 357 358 360 357 357 357 356 355 355 356 357 357 357 357 357 358
305 306 306 307 308 309 309 310 312 315 317 318 322 323 323 323 323 320 317 316 315 313 313 313 313 314 321 325 323 319 324 325 327 325 327 329 323 322 324 321 322 325 328 332 333 334 333 336 337 333 334 333 327 325 326 328 326 324 331 339 345 350 351 352 357 358 356 356 358 365 367 364 361 367 364 357 356 357 357 358 356 356 357 356 357 357 357 357
305 306 306 307 308 308 309 310 312 315 317 319 323 324 325 324 322 320 316 316 314 314 313 313 315 320 324 327 326 327 329 328 331 329 327 330 328 325 323 324 326 325 328 333 333 332 332 333 332 331 332 327 325 326 324 326 324 327 339 340 339 350 353 353 358 358 358 359 358 361 367 364 364 370 364 355 356 356 357 359 357 358 357 356 357 357 357 356
305 306 306 307 307 308 309 310 312 314 317 321 324 326 327 325 322 318 316 316 315 314 315 316 322 327 328 329 332 333 328 329 331 328 328 330 330 329 327 328 326 324 327 332 331 331 331 330 328 332 331 326 326 326 324 326 325 329 339 341 341 351 354 352 356 357 359 359 355 357 364 369 370 366 358 353 355 356 356 358 357 358 357 356 356 355 356 356
306 306 306 307 307 308 308 309 311 313 317 322 326 328 328 324 318 316 317 317 315 315 315 317 325 328 330 335 332 329 328 332 330 327 328 328 326 328 328 328 326 324 326 328 330 330 330 329 329 333 329 327 327 325 325 327 327 327 333 341 347 351 353 352 352 356 359 355 354 356 356 364 373 361 357 355 354 356 357 357 357 359 358 355 356 355 355 355
306 306 307 307 308 308 308 309 310 313 317 323 327 327 327 322 317 317 317 318 316 317 315 320 330 328 334 344 333 328 331 332 330 327 326 326 326 326 326 328 328 327 327 330 330 329 331 329 328 330 326 327 327 325 332 332 329 329 328 336 344 346 348 350 350 356 360 355 360 367 359 363 372 359 357 356 352 357 359 361 361 361 360 358 357 356 355 354
306 306 306 307 307 307 308 309 309 312 317 324 327 326 322 318 317 317 318 319 318 317 319 326 332 329 338 348 331 326 331 329 329 328 326 326 325 326 327 328 329 329 329 329 330 329 328 326 327 328 325 327 330 333 339 336 334 333 326 323 330 339 344 344 348 354 357 355 359 369 365 365 371 360 358 357 355 360 363 365 365 363 363 361 361 358 358 356
305 306 306 307 307 307 308 308 310 312 318 325 327 325 320 317 318 318 319 321 318 319 324 329 329 327 336 337 325 327 332 330 330 328 328 327 326 328 328 328 328 329 328 328 328 328 326 327 329 327 326 328 332 342 343 337 338 340 331 322 322 334 339 341 349 352 351 357 361 366 369 368 369 361 358 358 358 363 368 368 366 365 364 363 363 360 361 360
304 305 306 306 307 308 307 309 309 311 319 326 327 325 320 316 318 319 320 321 319 322 327 328 325 326 333 329 325 328 329 330 329 330 329 327 328 330 328 330 329 325 327 327 327 328 326 326 325 325 331 330 332 344 333 322 325 329 330 324 322 334 335 337 351 350 348 362 370 369 371 370 367 363 360 359 360 364 369 367 365 366 364 365 364 363 364 363
303 304 305 305 306 308 307 309 309 311 322 327 326 325 320 319 320 319 324 326 322 324 328 329 327 326 327 327 326 326 326 329 330 330 329 329 330 330 329 329 327 328 331 327 325 327 326 327 329 330 336 332 334 342 326 317 322 321 324 323 319 327 332 338 350 350 353 366 372 369 369 369 364 363 363 358 358 365 367 364 363 364 364 365 364 364 364 363
303 303 304 305 307 307 308 309 309 313 323 327 326 325 324 323 323 321 323 327 329 330 332 336 336 328 324 328 328 326 326 328 329 329 328 331 330 330 329 325 327 331 329 329 327 325 326 330 332 329 332 332 331 337 331 328 330 326 329 327 322 325 329 341 347 346 356 364 364 367 369 369 366 365 365 361 360 363 364 362 362 362 363 364 364 365 364 363
303 303 304 305 306 307 308 309 309 315 325 327 325 326 327 328 333 332 327 330 334 331 328 333 337 331 329 330 329 328 325 325 327 327 327 329 329 330 328 325 328 330 327 332 327 325 329 330 331 329 332 335 332 333 331 331 330 326 329 327 326 328 329 340 347 342 353 363 359 364 368 367 367 367 365 362 362 362 363 364 363 362 362 363 365 365 366 365
302 304 304 305 306 307 308 309 309 317 326 327 324 327 328 326 332 333 329 334 334 329 330 333 332 332 331 328 328 327 326 327 326 324 326 327 328 329 328 326 328 329 329 329 327 330 335 329 329 333 332 332 332 331 326 325 327 325 324 322 323 328 331 340 346 340 348 363 358 362 369 365 364 365 363 362 362 362 363 363 363 362 361 361 364 365 364 363
303 304 304 305 306 307 308 308 310 320 326 325 323 324 325 325 327 326 325 332 332 327 330 330 327 330 329 326 328 327 325 329 328 325 325 326 327 326 327 329 330 332 328 325 329 334 334 329 329 331 328 326 328 326 324 327 329 326 324 323 323 329 337 340 343 343 350 364 361 361 368 362 360 361 360 360 363 364 361 359 360 361 362 362 363 364 364 364
304 304 304 305 306 307 309 308 313 322 323 323 325 324 325 328 328 326 324 330 331 329 330 330 330 335 335 328 327 328 326 329 330 327 324 325 327 325 327 330 330 330 326 327 334 327 323 328 329 327 325 325 325 323 325 327 325 326 326 324 324 331 337 335 338 346 355 362 361 362 366 363 363 362 360 358 361 365 361 357 356 356 361 363 361 362 365 367
304 304 305 306 305 308 308 308 318 321 318 322 327 326 327 329 330 327 327 331 333 332 331 329 330 336 338 329 326 329 325 325 328 326 325 327 328 325 326 332 331 328 327 330 334 327 325 327 324 324 325 325 324 322 327 326 321 323 328 328 328 333 338 338 339 349 357 356 358 362 360 363 369 366 366 365 363 365 362 359 356 354 357 358 359 360 360 364
304 304 305 305 306 308 307 313 321 317 316 323 326 327 326 328 330 326 330 333 331 335 331 324 327 331 330 325 324 328 326 324 327 325 324 325 326 325 325 328 328 329 329 326 327 328 329 325 322 327 329 325 323 324 324 325 321 319 325 331 334 338 344 345 347 354 356 352 357 359 348 353 368 366 365 369 370 368 362 360 360 358 357 357 361 361 357 356
304 305 305 305 306 307 309 320 320 313 319 325 326 327 324 329 331 327 335 334 325 332 330 321 326 327 323 323 322 325 324 323 324 322 323 324 324 325 325 326 326 327 330 327 327 329 328 325 326 330 331 326 327 326 322 325 323 317 321 329 332 341 347 345 347 349 348 347 353 356 349 351 359 359 362 369 373 371 364 363 362 359 359 359 360 360 357 354
304 305 305 307 307 306 311 317 314 313 321 326 327 325 323 329 330 327 334 327 320 328 327 321 322 323 324 322 322 324 322 322 323 322 326 325 323 325 325 326 325 324 327 326 322 324 328 326 327 330 331 329 328 325 324 330 326 317 321 328 336 346 346 344 343 341 344 347 345 351 355 353 352 354 362 370 373 371 366 364 363 359 358 359 359 358 356 354
305 304 305 307 307 307 310 312 312 314 319 324 324 319 323 331 330 334 333 319 319 327 324 322 322 321 324 321 322 325 322 324 324 322 325 324 324 325 325 328 328 326 327 322 319 322 328 328 328 330 332 329 329 330 330 331 326 321 323 328 337 343 342 343 343 340 344 344 340 344 344 343 351 356 360 367 369 368 367 364 363 360 357 358 358 356 354 352
305 305 305 307 307 309 313 313 313 315 318 322 318 317 327 329 330 338 330 318 322 325 321 323 322 321 324 322 323 326 323 324 324 322 323 322 324 325 325 328 330 328 323 321 325 327 326 329 329 328 328 329 329 331 329 331 328 323 323 328 331 333 338 341 339 338 339 337 337 342 337 334 346 356 357 362 365 364 365 363 360 359 357 357 358 355 353 352
305 305 305 306 307 310 313 312 312 316 320 317 315 322 329 335 337 330 321 320 323 322 321 322 321 322 324 322 323 324 324 325 325 324 324 323 324 325 325 325 327 331 332 330 329 329 328 331 335 332 330 329 328 325 325 327 325 323 330 332 327 333 346 349 347 342 334 333 336 338 338 332 337 350 356 358 363 362 363 363 360 359 357 357 357 355 352 351
305 305 305 306 308 309 310 312 314 319 317 311 318 328 333 346 346 325 318 324 322 321 323 321 321 322 323 323 324 323 324 326 327 324 325 325 324 326 324 323 325 331 341 337 325 327 329 326 331 334 333 330 326 325 323 323 324 328 341 333 319 328 335 334 340 335 325 330 337 335 335 332 331 343 354 357 363 363 361 362 361 359 357 356 356 353 352 351
306 306 306 307 308 310 311 314 316 316 312 312 324 339 345 339 329 322 327 327 320 323 326 322 322 323 323 324 323 324 323 326 326 326 328 326 324 327 324 327 329 321 324 328 321 325 330 326 329 329 334 335 328 327 323 324 331 331 337 334 325 329 325 321 329 328 323 328 330 329 332 333 333 342 351 354 356 359 360 358 359 358 356 356 355 353 351 350
306 307 307 308 310 311 311 311 312 311 311 316 329 351 357 333 321 328 337 329 321 324 326 324 323 325 324 322 323 326 324 324 325 324 327 326 324 327 322 328 331 320 321 324 318 317 321 329 333 325 330 334 328 328 320 322 331 324 331 332 326 329 323 320 329 326 323 325 322 324 330 331 336 342 352 358 352 353 358 356 357 358 355 356 355 352 351 349
307 307 307 311 311 310 311 310 310 311 312 320 336 348 340 328 329 335 340 337 330 328 325 323 323 324 323 323 325 325 323 323 326 325 325 325 323 324 325 323 324 328 333 323 318 321 317 321 333 328 325 327 328 331 326 329 332 324 334 333 323 329 325 320 328 324 320 323 321 323 326 330 337 340 349 357 350 347 354 357 358 357 354 355 353 351 350 348
307 308 310 312 311 312 313 312 311 311 315 330 349 345 333 332 336 336 339 342 335 330 329 324 322 323 321 324 326 325 322 322 326 327 325 325 324 326 331 325 323 331 331 318 319 325 316 319 338 333 324 325 327 331 332 334 328 322 329 326 320 330 333 325 328 329 326 323 322 326 332 341 350 349 350 351 347 346 350 356 359 357 354 353 352 351 350 348
307 309 314 314 315 318 316 313 313 312 320 340 342 333 336 342 336 332 339 336 327 331 330 324 324 321 317 322 326 326 322 322 325 325 323 325 326 326 329 328 326 327 324 324 327 325 315 320 338 333 325 327 328 330 331 326 324 323 321 319 320 329 339 331 324 330 329 320 322 333 343 352 351 347 351 352 350 350 351 354 356 355 353 352 352 351 348 348
308 314 319 317 319 323 318 315 316 318 328 339 333 332 342 342 331 335 342 333 327 331 327 322 322 319 315 318 323 327 325 322 321 321 321 323 322 325 329 328 325 324 326 330 331 329 322 322 331 331 325 325 326 329 331 325 328 328 319 321 325 324 333 332 324 329 327 321 329 337 346 352 341 337 354 359 355 353 351 352 355 353 352 351 350 349 348 347
312 316 321 318 319 322 320 318 320 328 337 337 339 350 349 334 328 332 334 329 329 330 327 323 320 320 320 317 320 327 324 318 320 322 322 320 321 325 328 327 326 324 326 327 325 327 328 322 327 335 327 328 335 332 328 326 327 327 324 326 323 319 323 323 322 327 321 318 329 334 341 347 340 345 364 368 364 359 351 350 353 352 351 349 349 348 347 346
315 320 320 317 319 321 320 322 327 338 341 336 347 354 339 332 335 333 332 331 329 328 326 326 322 321 325 322 323 328 323 320 323 322 319 318 320 325 325 326 328 324 324 326 325 330 331 321 320 330 328 326 335 332 325 325 322 324 329 329 327 330 329 322 322 326 321 321 327 330 337 344 349 362 374 371 369 358 350 351 352 350 349 348 348 347 346 345
317 322 316 316 319 321 323 325 329 339 338 336 348 349 332 331 336 333 334 331 328 328 327 327 325 323 327 328 326 327 327 328 325 321 320 319 320 324 326 327 330 328 324 325 328 334 335 323 316 327 329 323 328 329 328 330 327 324 325 325 326 328 325 322 321 324 326 329 331 331 329 334 350 366 372 372 366 351 349 352 349 347 348 346 346 346 345 344
316 318 316 318 319 324 326 326 329 336 338 337 340 340 333 333 332 333 335 332 329 330 327 327 329 329 331 328 325 327 330 332 328 324 324 322 319 322 325 329 332 329 323 326 330 331 331 326 321 324 322 320 328 332 329 329 331 330 326 324 327 325 322 322 320 322 326 328 333 334 323 327 351 361 362 365 357 346 347 348 347 348 347 345 345 344 344 344
318 313 314 318 320 324 326 330 333 333 338 339 333 331 334 338 337 335 332 328 329 329 326 326 328 331 332 328 327 332 331 330 331 328 327 326 325 325 327 330 330 329 329 329 332 337 344 343 332 328 330 331 331 329 325 325 330 333 330 328 330 331 330 325 322 324 323 319 329 333 321 329 352 356 353 356 350 346 346 345 348 347 345 344 344 343 343 343
322 319 318 317 320 322 322 331 332 327 334 338 328 324 326 329 333 332 326 326 328 326 325 326 326 327 328 326 327 332 329 327 329 330 332 335 334 333 337 337 332 332 333 329 331 343 352 346 332 331 347 352 338 332 331 331 332 330 329 330 330 331 333 333 335 334 324 318 325 325 320 330 348 353 353 352 346 348 346 345 347 345 344 344 342 344 344 342
320 318 323 321 320 320 320 327 328 327 335 334 325 323 323 321 324 324 321 327 332 328 326 330 327 325 326 326 327 331 326 321 324 328 331 335 336 337 342 343 337 335 334 334 334 331 330 336 332 326 334 339 334 332 333 335 337 334 335 332 332 334 332 330 333 329 322 324 327 322 322 333 349 356 357 353 346 348 346 343 345 344 345 344 342 343 342 340
322 323 326 325 322 321 321 323 324 326 332 329 328 329 326 322 323 321 320 327 331 328 328 329 327 326 328 326 328 333 329 322 323 328 331 333 337 337 339 344 341 341 349 351 347 336 335 345 344 329 323 324 323 324 330 337 336 333 337 333 329 334 330 328 327 320 320 327 327 326 329 334 347 357 355 353 350 349 348 342 341 343 345 344 343 341 340 340
328 335 335 332 330 328 326 325 324 328 331 328 329 331 325 324 325 323 321 323 326 326 326 326 326 327 327 327 330 333 332 328 326 330 334 335 336 335 336 347 349 352 365 363 356 361 357 351 357 348 329 323 329 335 341 347 336 326 332 332 331 334 332 333 330 321 327 331 328 338 340 326 333 352 356 360 353 347 349 345 341 343 344 343 342 338 339 340
327 332 332 332 333 333 333 330 326 331 332 324 322 326 325 324 327 328 326 323 324 325 324 326 327 326 326 328 331 330 331 336 336 333 332 333 337 336 335 343 350 359 370 358 351 368 353 333 345 354 335 330 344 350 347 343 334 332 334 330 331 336 332 330 327 326 333 328 325 352 357 326 326 347 356 363 359 347 346 344 340 341 342 342 341 339 340 340
325 327 324 322 328 334 334 330 327 330 330 324 324 326 325 327 329 330 330 326 323 322 323 327 328 327 326 327 328 329 331 337 336 332 334 335 339 341 338 337 340 352 359 343 343 370 362 333 332 338 336 341 344 343 344 340 334 338 339 332 332 336 330 328 335 340 337 324 324 351 358 337 334 345 347 353 356 348 345 343 340 342 342 340 340 340 341 340
323 327 322 318 325 332 330 327 326 328 328 328 331 327 323 327 328 325 325 326 325 322 321 326 329 325 324 329 337 343 337 329 326 332 341 340 336 338 338 336 335 338 344 338 339 352 348 337 339 335 329 335 339 338 339 335 330 332 336 336 334 334 332 329 338 345 337 329 333 343 345 343 340 340 338 342 344 343 342 344 343 343 343 341 340 341 341 339
319 322 321 321 327 330 329 328 329 331 331 330 331 326 321 325 325 322 322 323 323 323 323 328 331 324 326 336 344 344 335 327 325 331 340 338 335 340 342 339 336 333 336 339 337 338 331 331 344 343 325 326 336 338 334 333 332 330 332 341 338 331 331 329 333 339 335 334 341 338 336 343 342 338 340 341 342 343 342 341 342 341 341 340 339 340 340 339
310 312 313 320 331 331 330 329 328 334 334 327 326 324 321 324 322 320 325 323 321 324 326 327 328 326 332 339 338 330 325 325 327 329 335 335 333 339 339 335 336 335 339 337 333 343 347 337 341 341 325 323 331 332 334 337 334 327 330 341 340 333 332 331 333 341 339 336 339 333 331 343 348 346 345 343 342 342 341 340 341 340 340 340 340 340 340 339
308 310 310 317 328 329 329 329 328 332 331 322 321 321 320 322 319 320 331 332 323 323 325 325 325 329 335 336 331 325 322 324 325 324 325 327 327 331 336 335 334 336 345 343 336 347 355 342 338 335 324 327 335 336 338 334 326 326 335 344 344 339 338 334 334 345 345 335 333 330 333 345 353 348 350 350 344 341 340 340 339 338 339 339 338 339 339 340
Wind_Speed
27 28 29 30 31 31 32 32 31 30 27 24 21 18 18 17 18 18 19 19 20 20 18 16 13 11 10 10 10 10 12 12 9 6 8 11 9 8 7 5 4 2 1 4 7 5 4 5 8 12 8 2 1 0 1 2 2 4 3 4 3 2 2 4 5 5 6 5 2 1 6 10 5 4 3 4 7 5 6 6 5 9 9 12 17 25 28 24
27 28 29 30 30 31 32 32 32 31 27 24 21 19 18 17 17 18 18 19 19 19 16 14 12 10 8 6 7 7 10 11 9 9 16 15 8 8 8 8 7 4 1 4 8 8 6 5 6 8 6 3 2 2 1 1 3 3 3 5 2 4 2 2 6 6 6 8 6 4 6 9 6 5 4 3 2 3 7 5 7 12 12 15 20 25 26 24
27 28 29 29 30 31 32 32 32 31 28 24 22 19 18 17 17 17 18 19 19 16 14 12 10 7 4 3 4 6 8 7 6 8 15 14 11 12 9 8 8 5 1 4 7 7 4 2 3 5 4 3 3 2 3 3 1 2 4 5 2 5 3 4 4 7 7 11 10 6 5 7 4 2 3 4 4 3 4 3 5 10 11 14 16 21 24 22
27 28 29 29 30 31 31 32 32 32 29 25 22 20 18 17 17 17 18 18 17 14 11 10 7 4 1 1 2 4 6 4 3 5 6 7 11 14 14 12 9 5 1 3 6 6 3 3 4 4 4 3 3 3 4 4 1 2 3 4 4 4 4 3 4 9 8 10 11 7 6 6 2 2 3 6 5 2 3 4 5 13 15 15 15 18 21 20
28 28 29 29 30 31 31 32 32 32 30 25 22 20 18 17 17 17 17 16 13 11 9 7 5 2 2 1 1 3 3 2 4 5 4 4 9 13 16 15 11 6 2 3 4 4 4 4 6 5 4 3 5 5 4 5 1 3 3 3 5 5 6 1 4 10 8 9 9 8 7 4 2 4 3 6 4 3 4 3 7 15 17 17 17 17 18 17
28 29 29 30 30 31 31 32 32 32 30 27 23 20 18 17 16 16 16 14 11 8 6 4 2 1 3 2 3 2 2 1 4 2 2 4 8 12 15 17 14 8 3 4 4 4 4 5 6 4 3 3 3 4 3 7 2 4 2 0 1 4 9 3 3 8 8 10 8 5 4 3 5 4 2 4 1 4 2 8 11 14 16 19 18 16 15 14
29 29 30 30 31 31 32 32 32 32 31 29 25 19 16 16 15 15 14 11 9 7 5 3 1 3 4 3 4 4 3 4 6 1 1 2 7 12 14 17 16 9 3 4 4 4 4 6 6 4 3 3 2 3 3 5 5 6 2 2 4 5 9 5 4 8 10 11 7 5 6 4 6 4 2 4 2 2 8 11 12 14 17 18 15 14 14 14
29 30 30 31 31 32 32 32 32 32 32 30 27 20 16 15 14 13 11 8 7 5 4 3 2 4 4 2 2 4 2 5 4 1 3 2 6 12 14 16 16 9 4 5 3 5 4 5 4 3 4 2 1 4 5 5 8 7 3 2 5 5 6 6 6 11 12 10 8 9 8 5 4 5 4 5 3 7 11 12 13 14 15 14 13 13 13 12
30 30 31 31 32 32 33 33 33 33 33 32 29 22 16 13 12 10 8 6 5 4 3 2 2 5 5 1 3 2 4 5 4 4 3 3 7 14 14 15 14 9 6 5 4 5 2 2 2 2 3 1 1 3 5 6 4 3 4 3 5 6 6 9 9 11 9 5 7 10 7 3 2 4 6 6 3 9 11 12 12 13 13 12 12 13 13 12
30 31 31 32 32 33 34 34 34 34 35 34 30 24 17 12 9 7 5 4 4 4 2 1 4 7 4 1 5 2 5 2 3 3 2 4 9 15 13 12 13 9 7 5 4 5 3 4 4 3 5 1 2 2 3 6 1 0 7 7 5 8 6 8 11 8 6 3 5 11 7 5 5 4 4 3 4 9 11 11 10 12 12 11 10 10 12 12
31 31 32 33 33 34 34 34 35 35 36 35 30 25 18 10 5 3 1 3 3 5 5 4 6 7 3 3 5 4 3 3 3 1 3 4 6 9 10 9 10 10 9 5 4 4 4 5 4 3 3 1 1 2 2 5 2 4 12 10 7 7 6 6 9 8 5 3 2 11 10 7 9 5 2 1 4 9 11 11 8 9 9 9 10 8 8 9
31 32 33 33 34 34 35 35 35 36 37 35 28 23 16 6 2 2 2 3 4 6 8 7 7 5 3 2 3 6 2 6 5 3 4 5 5 5 7 6 6 8 9 5 2 4 4 3 4 5 1 2 2 3 3 5 4 5 12 11 5 7 6 2 3 5 5 5 4 6 9 7 8 5 2 2 5 7 10 9 7 7 7 8 8 6 6 8
32 33 33 34 34 34 35 35 36 37 37 32 24 20 13 2 2 4 4 4 5 5 7 8 5 2 2 1 5 4 6 8 5 2 5 7 7 7 7 5 5 7 8 3 3 3 4 2 3 4 2 4 2 1 4 4 4 5 6 8 4 5 3 4 2 5 4 6 4 4 5 4 5 4 3 4 6 8 8 6 5 6 6 7 7 6 6 8
33 33 34 34 34 34 35 35 35 36 36 29 21 16 9 1 3 5 5 5 5 5 5 6 4 2 2 3 4 4 6 5 2 0 4 7 9 9 8 7 7 6 6 1 2 2 1 3 2 4 1 4 2 1 5 6 4 5 4 4 3 5 4 5 2 3 1 2 4 7 5 4 3 3 4 3 6 9 7 5 5 5 6 6 6 7 6 8
33 34 34 34 34 34 34 35 35 36 35 27 18 13 7 2 3 4 5 5 5 6 5 5 4 2 1 4 5 3 1 2 2 2 4 6 8 7 7 6 5 4 3 2 1 1 3 1 3 4 0 2 5 4 4 4 4 4 4 1 2 4 4 6 3 2 1 1 4 8 4 3 3 2 3 4 5 8 7 5 4 4 5 6 6 6 6 6
34 34 34 34 34 34 33 34 34 35 32 24 16 10 5 2 2 3 3 4 5 6 5 3 2 2 2 2 2 2 2 3 2 3 5 5 5 6 5 5 3 0 2 3 2 2 3 4 4 3 2 3 6 5 4 5 4 4 3 3 2 4 4 3 3 2 3 2 4 6 5 2 2 2 3 3 6 7 7 5 4 4 5 5 5 5 5 5
34 34 34 33 33 33 33 33 33 34 30 22 13 6 4 2 2 2 3 4 5 5 4 1 2 2 1 2 1 1 3 4 3 5 7 6 4 4 6 5 2 4 5 3 3 3 4 4 2 1 3 4 3 5 4 3 2 3 3 2 3 4 5 2 3 4 4 5 3 6 5 4 2 4 4 3 5 8 7 5 4 4 4 4 4 4 4 5
34 34 34 33 33 32 32 31 32 32 26 19 11 4 3 1 0 2 3 4 4 3 2 1 1 2 2 2 1 3 4 5 6 6 7 7 5 3 5 4 3 6 8 5 5 4 3 3 2 1 3 4 3 5 4 3 4 3 2 3 2 2 3 4 4 3 4 6 4 6 5 4 5 6 5 3 2 6 7 5 4 4 4 3 3 3 3 3
34 34 33 33 32 31 31 30 31 29 22 16 9 3 3 3 3 2 1 2 1 1 1 2 1 2 2 2 2 5 3 6 7 6 8 7 6 4 5 5 5 6 5 3 3 4 3 2 4 3 1 1 2 4 6 7 6 6 5 5 5 4 3 4 1 2 5 8 5 5 6 6 7 6 5 3 3 4 6 4 4 3 3 4 3 2 2 1
34 34 33 33 32 31 29 28 29 24 17 14 9 4 4 4 4 3 2 3 4 4 3 3 3 1 4 4 4 4 1 6 4 4 8 8 7 6 5 5 6 6 3 2 2 2 5 3 1 4 5 5 6 8 6 4 6 6 5 5 6 6 2 1 3 5 4 7 4 1 7 7 7 6 5 4 3 4 6 5 4 3 3 4 3 3 2 1
34 33 33 33 31 30 28 27 27 19 13 12 8 4 1 2 3 4 5 4 5 6 5 5 5 4 6 5 4 2 2 3 1 1 7 8 7 6 2 3 6 3 2 3 1 3 6 3 5 7 7 7 7 7 5 6 6 5 5 6 4 4 2 2 3 3 3 6 2 2 9 5 3 4 3 5 5 3 5 6 6 5 3 2 4 3 2 1
34 32 33 31 30 30 26 27 24 13 10 10 6 3 1 4 5 6 4 5 7 5 6 5 3 5 8 7 8 3 4 3 1 2 5 8 5 3 1 5 6 2 3 1 2 5 4 2 8 7 6 6 3 3 6 6 6 5 4 6 4 4 4 2 3 5 5 4 1 3 8 2 2 2 3 3 4 2 1 2 4 6 5 3 3 3 2 2
33 33 33 31 31 28 25 27 19 7 10 9 3 3 3 9 9 4 2 2 8 4 4 4 3 4 5 5 6 6 4 3 4 4 6 8 2 3 5 5 5 4 1 3 4 2 1 4 6 5 7 7 5 4 8 6 4 4 5 6 5 6 5 2 1 5 6 4 5 7 5 1 3 2 2 1 2 2 1 2 1 3 5 4 3 3 3 3
32 33 32 31 30 26 26 25 11 4 14 8 2 2 9 10 8 2 0 1 5 6 4 5 4 5 4 2 8 10 3 3 5 4 9 10 4 3 5 5 5 3 1 4 7 5 5 7 5 5 6 8 7 5 7 7 4 2 4 7 7 7 4 4 5 3 7 7 6 9 5 4 3 0 3 1 0 3 3 2 1 2 2 3 3 2 3 4
32 33 31 31 29 26 25 17 2 8 17 6 5 4 11 10 6 2 2 1 3 6 3 3 2 4 4 4 10 9 3 2 4 5 10 10 7 4 2 3 4 1 3 4 6 3 7 5 4 5 6 5 7 6 4 5 5 2 2 6 9 9 8 10 8 5 6 3 2 6 4 4 4 2 6 2 1 2 2 3 4 4 3 3 4 4 4 3
33 32 31 30 28 27 21 6 3 15 14 1 4 6 12 10 5 0 3 4 3 5 1 2 1 4 5 4 6 5 5 2 5 5 10 10 8 5 2 1 2 1 5 4 3 3 4 3 3 6 6 5 5 5 4 4 8 2 3 6 8 10 12 12 10 5 4 3 3 4 4 3 4 4 7 2 2 4 1 3 5 5 4 4 5 5 4 4
33 32 31 29 26 25 15 4 9 14 5 2 3 8 14 10 2 2 3 4 3 3 1 1 1 3 5 3 4 6 3 4 1 3 7 11 6 3 3 2 1 1 3 3 1 2 3 3 6 6 7 5 4 4 5 6 8 3 4 8 11 12 13 12 9 5 3 4 3 3 4 2 2 5 5 5 4 5 5 6 6 6 6 6 6 6 6 6
32 31 31 27 24 21 12 9 11 8 3 3 6 10 14 6 2 4 5 2 3 2 2 2 1 2 1 1 4 5 3 3 4 1 3 9 6 4 1 5 4 4 2 5 2 5 2 2 4 7 6 3 3 4 7 7 6 3 5 9 9 10 10 9 7 5 1 4 2 3 2 2 4 5 2 4 5 7 9 10 9 7 8 7 7 7 7 7
32 31 30 27 24 18 8 8 9 5 4 5 8 14 11 1 3 5 4 1 2 1 0 1 0 0 2 2 1 1 1 0 3 2 2 5 4 3 3 6 6 6 1 5 4 5 2 4 7 8 5 5 4 3 6 6 5 5 7 8 7 6 6 5 5 5 4 3 4 7 5 2 4 4 1 3 5 11 11 10 9 8 8 8 8 8 8 6
32 30 29 27 24 13 6 10 12 6 5 7 12 13 5 3 4 5 1 2 1 1 1 1 1 0 4 4 2 4 2 1 1 2 2 2 1 5 3 4 6 6 2 4 2 5 4 0 3 4 3 6 4 3 3 3 5 8 8 8 8 7 6 5 3 5 5 1 6 7 7 5 3 4 5 6 5 9 10 7 8 8 8 9 8 8 9 7
32 29 27 27 21 10 5 8 7 3 5 11 13 7 2 3 4 5 2 3 1 2 1 0 1 2 5 5 2 2 1 2 3 3 1 1 4 5 2 2 3 4 4 5 1 4 4 3 1 2 2 4 6 5 2 4 4 7 5 5 6 4 5 4 5 4 3 4 6 4 4 5 3 5 7 8 5 3 9 11 12 13 12 11 9 9 9 7
31 28 25 23 18 11 10 8 6 7 12 12 8 3 4 3 1 2 3 3 1 2 2 2 2 2 4 3 2 3 2 0 1 3 4 2 3 2 3 4 3 2 3 3 2 3 1 2 2 4 1 4 6 5 3 5 5 6 6 5 5 3 3 2 2 0 3 6 4 2 4 4 5 7 6 9 8 5 9 11 14 15 13 11 10 10 9 7
31 28 24 19 15 15 16 13 11 13 14 8 3 4 6 4 2 4 3 2 1 3 1 1 0 3 5 3 2 2 2 2 2 1 2 2 2 3 3 3 5 4 1 3 1 1 1 4 6 2 1 2 6 6 3 0 2 5 5 5 4 3 3 0 3 1 3 5 3 0 1 2 5 5 5 8 9 8 9 10 11 13 14 13 12 10 8 7
31 27 21 17 16 18 17 14 13 12 9 3 3 5 5 2 4 3 3 3 2 2 1 2 1 3 5 3 3 3 2 3 2 3 2 3 2 3 3 2 3 4 3 3 2 3 3 3 4 3 3 1 4 4 7 6 3 2 4 5 5 5 5 3 4 3 3 4 2 3 1 3 3 3 6 7 7 6 8 8 9 10 11 11 9 8 7 7
30 24 18 15 15 14 12 12 15 11 4 3 5 4 3 3 4 2 3 3 2 2 2 1 3 4 2 2 3 1 3 3 2 5 2 2 4 4 3 4 4 4 5 3 2 2 4 5 7 3 2 3 3 2 4 6 4 1 2 4 3 4 5 3 3 5 3 1 2 2 2 4 4 4 4 3 4 5 7 8 9 10 9 8 7 7 8 8
30 23 14 11 10 8 5 7 13 12 5 5 5 2 4 4 3 3 3 2 1 2 3 4 3 4 1 2 3 3 1 0 1 2 2 2 4 4 3 4 6 7 6 5 3 1 2 5 7 4 2 3 2 3 3 3 2 2 2 2 3 3 7 5 2 1 4 2 2 2 2 4 4 4 4 4 1 3 6 8 10 11 10 9 9 9 9 9
30 21 8 7 11 7 5 8 16 14 5 6 4 4 4 4 4 4 2 1 1 1 2 2 1 2 2 2 2 3 1 1 0 1 3 2 3 5 4 4 5 9 8 5 3 3 4 3 6 2 3 2 1 4 6 4 3 5 3 5 4 3 5 5 2 3 5 1 3 2 3 5 3 2 5 4 1 4 5 7 8 9 10 11 11 10 10 10
25 15 4 8 13 5 7 13 18 11 5 4 2 4 3 2 3 3 1 1 1 2 3 2 2 2 3 3 3 2 2 3 2 2 2 2 3 5 5 4 4 9 10 4 1 2 4 1 7 2 3 1 4 5 5 5 4 4 5 4 4 4 2 2 3 2 2 1 3 4 3 3 2 3 5 3 6 7 6 6 8 10 12 12 11 11 11 10
14 6 1 10 14 1 13 15 11 6 5 3 3 3 3 3 4 3 2 1 0 2 1 3 2 1 3 4 3 2 3 4 4 3 2 2 4 4 3 3 4 7 8 5 4 3 4 2 5 3 1 2 4 3 2 1 5 5 4 3 3 3 4 2 2 3 3 2 2 4 4 3 5 6 5 7 9 9 9 8 10 13 14 13 12 12 11 10
5 2 1 11 14 7 15 9 4 5 3 4 3 3 2 3 4 4 4 3 1 1 2 3 2 2 2 3 3 2 2 3 5 3 2 3 4 4 3 3 2 2 2 4 3 2 4 2 4 4 3 1 1 2 6 6 3 3 2 1 1 2 2 2 1 2 3 4 3 1 2 5 7 5 7 10 9 10 12 12 12 12 13 13 12 12 11 10
3 2 1 12 12 11 12 4 2 2 2 2 2 3 3 2 2 5 5 4 3 3 2 4 3 2 3 2 2 3 2 2 4 3 2 4 4 3 4 3 4 4 4 4 2 3 2 3 4 2 1 3 4 5 5 7 6 6 5 4 4 4 4 3 1 2 1 3 4 4 2 8 7 4 7 8 7 10 12 12 11 10 12 13 12 12 11 10
3 1 4 12 12 8 9 3 1 1 2 3 3 3 2 2 2 4 4 1 2 3 0 1 3 3 3 3 2 3 3 2 2 2 2 4 5 5 3 1 3 5 5 3 3 3 3 4 4 2 4 5 6 7 2 4 5 6 3 3 5 4 5 6 3 4 0 2 2 4 2 7 6 4 5 6 5 8 10 10 10 9 11 12 12 10 9 7
2 4 8 10 14 2 6 1 3 1 1 3 3 3 2 1 2 3 3 1 2 2 0 1 3 2 2 3 2 3 3 3 3 2 2 3 4 7 5 1 3 5 5 3 3 2 3 4 4 1 4 4 5 5 3 4 5 5 1 2 5 3 3 5 4 4 4 2 2 2 2 7 6 3 3 4 5 6 7 9 10 9 9 10 10 8 7 7
1 4 6 9 16 5 5 2 2 1 3 3 4 4 3 1 3 3 3 2 2 1 1 2 3 2 2 2 3 3 4 2 2 2 2 2 3 4 1 2 3 5 2 3 5 3 2 2 4 4 3 4 5 5 5 4 1 3 1 1 3 5 6 4 2 3 2 4 5 4 4 7 6 4 4 3 4 6 7 8 9 9 8 8 8 7 7 8
2 2 4 8 15 7 4 2 3 3 1 3 3 5 4 3 3 4 4 4 3 1 1 2 1 2 2 2 3 1 0 1 2 2 1 2 3 3 3 4 2 4 3 3 5 4 3 3 4 6 5 3 3 3 3 3 1 1 1 2 2 5 7 4 3 4 2 3 4 5 5 7 7 6 5 4 4 7 8 7 7 8 7 7 7 7 8 8
2 2 3 6 8 6 2 1 3 3 1 2 2 4 2 4 5 3 2 3 2 1 1 2 1 3 3 2 3 2 1 1 1 0 2 2 3 3 4 4 2 3 3 6 7 5 4 2 3 7 8 8 8 7 6 3 3 2 2 3 3 3 5 5 5 4 5 4 3 6 6 4 9 8 5 5 7 9 9 9 9 9 7 7 7 7 8 8
2 1 2 3 4 4 3 3 5 3 1 1 1 2 3 4 5 5 3 0 2 2 1 0 2 2 0 2 3 1 1 2 3 1 1 2 3 4 5 4 3 3 3 5 3 4 5 2 2 7 6 7 7 4 2 3 4 5 5 4 3 3 5 6 4 4 5 5 5 9 6 5 8 9 8 9 9 9 10 11 11 10 8 8 8 8 8 8
2 0 0 0 1 1 2 3 4 4 3 1 1 1 4 5 5 5 4 4 4 3 1 2 2 1 2 3 4 3 1 1 2 1 1 1 1 3 5 3 3 5 3 3 3 4 7 2 3 5 2 1 2 2 1 2 2 3 6 5 4 5 6 6 6 6 7 6 8 7 7 8 9 8 10 11 10 11 12 9 6 5 6 8 9 10 10 10
2 1 1 2 0 2 2 4 4 3 3 3 2 3 5 5 6 4 3 4 6 5 4 1 3 5 4 2 4 4 3 2 1 2 3 1 0 1 2 1 1 4 5 4 3 2 5 2 2 3 4 3 1 3 2 2 2 2 3 5 5 6 8 8 6 6 8 7 8 4 6 9 9 9 11 9 7 8 6 4 4 6 8 10 11 12 12 11
2 1 2 3 2 2 3 3 3 2 3 4 3 3 4 4 5 6 4 2 3 6 6 3 6 7 4 1 5 4 3 3 2 3 4 3 1 2 3 3 2 3 5 3 2 3 3 2 1 3 4 2 2 1 2 2 4 4 3 3 3 3 5 5 4 3 4 6 8 3 4 8 9 9 9 6 3 5 5 6 8 8 10 11 12 12 13 12
3 2 2 2 2 3 2 3 3 3 3 5 2 3 4 3 4 6 5 3 1 2 5 6 9 7 2 4 7 3 2 3 6 6 5 5 4 4 3 3 5 3 3 2 1 3 4 3 2 5 3 4 4 2 1 3 2 1 4 6 5 3 4 4 3 5 5 4 4 2 3 7 7 4 4 4 3 7 8 9 8 7 10 13 14 14 13 12
7 3 2 1 1 4 3 2 4 3 2 3 3 3 3 3 5 6 3 3 1 2 3 7 6 3 2 5 5 4 7 8 9 9 6 4 5 5 4 2 5 5 3 3 2 2 4 5 2 3 3 4 5 1 2 4 2 3 6 7 7 4 4 2 2 5 6 5 4 4 6 7 5 2 3 4 5 7 9 9 8 9 11 12 13 14 14 13
Wind_Direction
3 1 359 359 359 359 359 358 357 354 350 346 342 336 330 326 323 322 322 322 322 322 321 318 314 309 304 306 311 311 312 313 308 288 256 242 235 229 229 225 213 224 318 15 21 42 40 8 349 356 12 78 93 334 168 187 104 65 73 83 88 119 117 166 170 160 144 121 85 83 110 118 121 109 123 66 64 76 57 36 50 57 68 95 111 124 128 135
2 1 359 358 358 358 358 357 356 355 350 345 342 336 331 327 322 321 319 319 321 319 317 315 311 307 300 303 306 313 318 315 316 284 249 237 235 233 227 229 230 242 317 31 37 57 53 343 334 10 26 21 356 338 8 60 88 86 107 86 150 192 91 108 152 137 126 126 113 89 98 116 133 137 124 99 79 73 71 50 67 77 83 100 112 122 127 134
0 359 358 358 357 357 357 356 356 355 351 346 341 337 332 328 323 321 319 318 318 315 313 312 310 304 294 290 301 322 329 330 328 279 251 238 233 229 220 223 224 231 313 46 48 54 63 329 351 35 38 14 358 338 8 7 35 122 108 81 219 195 93 31 107 115 122 126 113 103 101 96 119 129 91 117 104 42 111 126 94 103 113 116 120 127 131 133
358 358 357 357 356 356 356 356 356 355 352 347 341 337 332 328 324 320 319 318 315 313 312 315 314 300 252 234 299 323 342 351 280 236 220 223 219 219 216 215 212 214 255 57 50 42 47 57 53 53 50 14 326 353 22 343 329 105 98 138 201 169 96 28 114 120 120 123 120 125 112 85 61 71 91 122 106 335 232 202 145 137 135 130 133 135 135 135
357 356 356 356 356 356 355 355 355 354 353 349 343 337 332 327 322 321 320 318 315 314 316 321 319 294 147 127 317 316 0 44 239 196 163 212 208 208 207 206 206 205 188 64 53 52 46 57 64 50 50 19 332 9 0 312 29 79 2 181 183 125 103 346 143 126 121 116 111 105 96 95 70 60 95 123 130 240 230 166 140 141 141 139 140 139 138 139
356 355 355 355 355 355 355 355 354 353 352 351 346 338 331 325 321 321 320 319 315 314 317 318 324 162 139 94 41 25 122 184 264 194 179 241 210 204 198 199 202 196 164 83 67 62 48 40 53 52 48 33 4 23 318 310 21 94 9 87 204 110 120 170 149 119 111 96 84 88 98 109 93 66 70 94 176 243 118 111 128 133 137 139 139 141 143 147
355 354 354 354 354 354 354 354 354 352 351 351 348 340 330 322 320 321 321 321 315 315 315 302 292 179 154 95 53 60 110 254 274 225 304 266 201 200 192 195 196 191 161 96 83 86 72 44 58 105 71 33 15 3 330 340 37 79 72 77 34 62 117 135 115 100 92 93 92 96 94 86 97 111 75 38 346 119 97 107 122 125 130 136 139 143 148 153
354 353 353 353 353 353 354 354 353 351 350 350 348 341 330 320 317 319 322 321 317 322 318 297 253 189 161 123 66 43 348 256 261 296 338 354 179 185 183 184 187 190 142 99 118 133 102 59 80 123 63 35 62 351 345 27 36 50 39 68 75 64 93 100 98 100 96 103 108 90 85 98 115 118 69 13 29 97 104 113 120 123 129 137 143 147 150 154
353 352 352 352 352 352 353 353 352 350 349 349 346 340 329 317 315 318 321 326 336 336 322 308 220 169 149 130 88 77 257 249 270 291 349 55 149 161 169 173 174 176 129 115 138 132 122 96 150 181 116 161 122 2 360 49 28 39 48 47 105 100 102 110 102 102 105 109 106 88 71 70 104 100 52 9 71 103 110 119 125 127 132 143 147 152 154 156
352 351 350 350 350 351 352 352 351 349 349 348 344 339 329 314 308 313 324 348 10 1 355 102 150 135 133 97 90 151 244 285 309 276 89 92 134 144 153 163 164 159 130 137 161 126 121 164 200 163 121 135 94 51 32 73 10 149 81 56 81 105 111 115 111 117 110 70 89 94 73 15 21 80 69 18 102 113 117 122 130 130 135 147 147 154 157 160
350 350 349 349 349 350 351 351 350 349 348 347 343 338 329 313 294 292 1 34 40 49 68 111 126 115 107 92 107 194 250 6 353 16 109 122 129 144 151 154 162 163 147 156 208 174 132 160 171 103 90 49 50 25 68 111 104 116 104 71 25 73 84 82 115 149 118 74 96 94 78 21 21 46 82 89 116 118 124 126 128 125 131 141 141 150 155 162
349 348 348 347 347 348 350 350 350 349 348 347 344 340 333 316 243 179 111 68 61 73 93 113 116 100 57 73 178 219 292 345 335 39 118 130 115 148 155 153 165 174 172 165 219 187 143 152 112 87 156 132 61 0 104 122 97 108 107 94 21 52 93 112 135 209 137 127 236 78 62 7 12 16 22 92 114 114 117 121 120 119 126 133 140 146 151 163
347 347 346 345 345 347 348 349 350 349 348 348 347 346 341 321 146 139 109 76 75 82 108 120 114 87 51 251 234 256 309 318 327 67 129 129 118 133 140 150 165 181 194 162 73 115 137 194 111 105 173 111 91 297 96 68 76 99 86 102 101 64 130 221 263 262 151 127 284 53 74 315 340 12 46 102 122 117 110 112 119 120 128 134 143 149 154 166
346 345 344 343 344 345 347 349 350 348 348 350 351 353 352 11 125 127 100 71 78 81 103 106 86 86 107 247 270 324 306 298 319 146 143 135 125 129 141 153 168 190 211 207 60 87 178 225 113 89 115 99 108 36 46 22 54 104 86 78 103 123 203 261 280 271 116 91 354 75 120 254 286 8 54 111 127 123 116 109 122 128 134 139 149 157 163 175
344 343 342 342 342 344 346 347 349 348 348 350 353 355 1 33 108 114 93 75 85 86 93 83 62 84 50 286 294 348 292 204 242 224 164 148 129 127 153 159 171 206 248 277 255 261 293 295 77 74 138 39 59 56 27 14 25 66 112 45 352 143 211 288 260 202 120 268 14 73 124 243 249 261 52 101 123 119 116 109 121 134 141 146 157 165 168 181
342 341 340 340 340 342 344 346 348 347 347 350 352 354 10 49 95 95 86 79 96 106 103 80 48 106 89 324 325 16 167 186 219 199 177 166 128 113 132 129 130 344 325 293 288 318 354 40 65 70 84 50 64 79 44 29 6 355 104 178 240 151 184 283 257 220 118 157 357 51 136 187 247 205 69 93 126 117 112 114 122 133 147 153 159 167 168 177
342 340 339 339 339 340 343 345 347 347 347 352 354 356 18 53 102 80 72 72 104 126 117 118 42 81 214 298 345 302 234 200 187 184 186 176 146 121 109 94 69 16 8 4 2 5 21 40 54 358 47 61 75 88 62 24 308 317 58 145 217 168 170 184 233 248 88 93 14 42 112 169 168 117 79 63 126 125 123 130 136 138 144 150 155 163 171 181
341 340 339 338 338 339 342 344 346 347 347 352 358 2 12 15 146 51 71 76 108 130 87 237 24 56 240 282 300 270 267 204 186 179 180 178 179 151 97 83 51 25 20 26 26 28 33 15 45 45 17 28 48 78 108 201 194 188 142 129 181 185 196 187 198 232 87 79 71 80 100 142 123 102 82 30 77 129 131 132 138 139 137 133 132 144 164 190
341 340 339 338 338 339 340 342 345 347 348 353 354 338 342 317 290 292 172 99 111 233 309 226 184 52 232 253 271 289 275 182 175 167 167 172 170 129 80 75 54 48 46 29 349 9 57 34 49 89 299 303 156 147 175 194 164 156 154 140 161 173 223 215 164 14 93 86 56 99 126 141 132 120 109 59 23 111 122 118 126 131 128 117 102 99 87 119
342 340 339 338 337 337 339 341 344 346 351 356 344 324 345 344 343 326 264 208 213 229 252 211 182 272 279 267 286 308 228 157 155 156 162 166 148 111 58 42 43 48 74 151 261 343 80 88 217 198 205 198 197 199 181 141 121 130 126 133 174 171 175 171 64 5 79 95 9 71 129 142 145 133 122 106 76 118 135 138 146 150 143 133 125 114 83 40
343 341 340 338 336 337 338 339 341 345 356 2 355 0 23 356 359 321 309 280 237 213 231 231 188 234 268 257 270 307 82 119 29 89 158 160 134 114 44 36 65 35 276 191 232 353 63 92 234 220 200 189 201 203 149 100 112 132 143 147 167 169 152 102 105 351 27 89 17 99 121 129 141 117 110 125 135 164 167 160 165 165 163 155 141 136 108 8
344 342 340 338 336 336 337 337 338 347 4 6 15 60 182 323 317 270 285 314 281 217 206 235 207 259 270 261 258 254 66 77 321 310 167 150 122 140 121 64 107 178 271 133 54 4 30 282 248 231 189 163 160 149 122 115 129 126 141 141 145 165 136 69 43 7 23 94 89 122 123 124 317 74 93 129 153 194 240 211 187 164 162 183 165 146 124 59
344 341 340 339 336 336 336 335 333 349 5 358 25 61 348 347 343 279 223 301 291 271 185 198 193 231 267 275 231 173 111 140 181 252 188 148 128 167 128 86 127 159 114 121 136 118 341 252 230 197 160 134 76 86 118 110 98 111 132 130 157 185 152 115 15 18 33 81 125 124 107 346 324 43 99 152 169 142 47 347 257 177 165 182 185 158 144 130
343 342 341 339 337 336 335 333 327 354 352 338 194 15 356 353 355 344 194 249 285 291 225 197 191 197 226 242 164 151 135 167 165 214 185 154 137 151 145 139 131 128 189 150 137 160 237 230 178 116 121 127 106 113 129 113 74 49 141 138 156 175 139 118 143 98 45 46 110 115 64 326 305 185 200 276 28 122 92 93 243 245 166 150 155 161 176 167
344 342 340 340 338 335 334 334 345 351 341 322 185 344 356 351 344 16 66 39 292 291 261 196 227 210 196 135 155 157 113 179 205 200 177 159 147 142 173 161 120 146 210 147 127 198 260 248 171 103 83 95 112 134 175 142 105 25 212 169 160 150 117 115 128 105 61 27 199 127 86 279 294 254 223 268 305 170 98 149 212 233 187 156 160 181 206 200
344 341 341 341 338 335 337 342 351 340 336 263 186 325 346 345 330 136 92 43 304 281 262 170 238 191 172 133 159 138 91 236 251 173 159 163 156 127 129 156 40 176 180 150 139 212 273 350 79 110 100 88 99 132 202 148 108 105 204 158 140 130 121 134 141 113 114 195 215 116 125 236 304 272 226 213 210 226 238 206 221 227 205 184 180 189 202 202
342 341 340 340 340 339 336 301 317 330 326 224 262 317 337 339 315 152 74 33 296 265 140 216 309 155 174 172 143 114 137 239 258 120 165 174 172 69 111 204 2 163 162 117 59 242 225 30 58 89 88 94 111 145 190 141 109 152 185 134 132 137 141 156 150 122 164 162 86 68 102 122 286 262 222 168 185 238 247 230 226 223 215 196 191 197 200 204
341 340 338 336 339 337 318 285 306 312 252 277 296 320 335 334 164 116 80 66 269 282 139 221 247 142 131 88 131 127 196 212 124 222 238 170 173 40 81 221 174 164 141 116 205 270 209 147 145 121 88 119 178 195 182 133 100 170 162 132 136 143 147 155 133 104 110 110 115 247 124 109 261 272 262 157 193 233 232 224 219 214 215 202 196 203 204 209
339 338 336 333 334 333 310 277 287 280 260 289 316 326 331 342 129 79 78 138 269 320 185 261 314 225 24 59 157 43 21 86 138 231 323 146 176 61 146 209 152 143 79 111 188 254 228 192 178 130 110 187 202 203 175 122 88 140 122 93 82 82 85 90 103 96 64 81 208 219 178 173 269 275 214 155 213 229 221 218 213 208 211 204 200 206 207 211
337 336 333 329 328 328 305 279 276 264 270 306 327 327 325 117 77 67 98 236 274 324 272 293 317 18 87 108 288 335 30 320 15 83 46 124 36 36 124 160 103 112 22 33 173 247 296 304 156 115 145 189 144 108 151 92 107 132 100 73 70 51 42 52 54 75 73 326 252 221 184 181 277 270 201 182 218 215 197 200 207 205 209 206 203 205 205 207
334 334 329 323 319 310 280 283 275 246 296 318 328 333 50 68 64 99 192 242 256 319 334 225 290 98 120 136 218 281 107 320 350 91 124 79 50 38 88 127 74 64 13 3 305 287 339 60 162 269 179 135 89 80 68 28 72 109 85 90 99 28 15 42 5 41 108 251 265 237 168 153 245 260 216 215 249 196 176 191 198 200 205 204 203 206 205 203
333 331 324 315 304 273 249 259 267 280 301 317 330 5 75 54 54 163 252 299 324 267 223 187 223 150 142 132 183 208 144 241 318 114 146 132 114 151 171 177 163 68 341 287 267 319 355 156 298 320 194 128 96 86 49 14 36 83 80 87 98 21 19 54 319 137 190 246 254 177 131 144 236 250 222 225 244 220 191 197 196 196 198 198 201 205 204 202
332 329 321 308 289 266 262 270 270 274 288 305 351 46 75 88 217 216 253 309 190 243 239 145 120 116 133 137 205 204 124 199 245 107 130 106 125 226 253 189 151 126 219 217 181 334 298 305 329 7 223 150 116 125 151 304 42 105 123 111 105 84 69 274 266 255 255 253 238 251 130 193 270 268 210 215 235 221 202 203 199 195 193 195 200 199 198 200
333 329 318 300 284 277 275 268 252 252 271 301 61 64 85 136 236 222 238 268 243 278 13 89 65 95 133 178 231 196 155 228 199 120 111 80 102 245 259 212 161 116 116 135 160 157 150 282 284 173 197 164 133 162 165 148 96 104 153 131 132 148 151 205 226 202 246 246 238 321 294 187 227 238 202 216 246 227 201 198 192 193 196 194 192 191 196 205
333 330 319 298 286 284 278 254 237 233 232 76 67 78 132 207 246 224 231 257 292 321 337 54 105 119 165 277 294 235 186 227 160 119 137 144 170 207 202 198 192 132 119 152 221 127 134 233 256 257 225 130 141 190 132 105 85 105 134 107 136 173 147 150 186 177 184 237 257 280 242 208 222 246 244 257 267 227 196 185 175 186 194 180 180 193 201 210
335 334 325 303 298 301 286 234 207 199 176 87 69 124 185 218 221 185 209 232 340 320 336 2 65 122 199 286 310 322 340 241 104 130 201 200 192 205 210 213 189 163 154 160 196 146 123 254 280 318 19 72 125 162 96 76 142 140 102 151 205 166 118 119 170 105 67 93 256 276 269 298 321 291 304 6 21 179 178 179 177 183 183 177 191 199 202 210
336 337 332 326 328 307 251 195 170 164 132 89 118 206 221 229 197 182 234 306 340 24 70 33 39 147 179 204 269 300 317 239 212 179 227 257 227 200 205 241 195 182 186 163 185 192 149 246 294 3 97 35 57 111 68 45 129 130 156 187 175 130 96 100 118 21 45 123 270 319 276 294 347 305 305 352 82 180 184 182 176 177 181 189 200 200 203 209
329 329 317 347 344 311 190 167 157 143 85 87 173 233 226 223 203 191 275 328 341 45 87 152 207 186 167 168 234 263 166 194 222 189 189 245 252 203 176 206 200 197 204 176 176 205 128 207 293 304 159 290 16 74 60 19 48 115 158 151 117 135 138 69 110 135 98 195 286 318 305 274 206 226 278 274 203 194 192 183 177 183 188 195 201 201 206 206
326 326 306 355 355 63 160 157 148 94 64 132 219 246 220 247 258 229 222 302 4 96 128 211 187 111 142 157 189 197 148 182 199 189 169 178 244 240 182 202 216 209 205 166 164 189 104 142 266 304 247 280 23 71 152 4 27 52 73 46 42 131 154 156 143 153 156 158 263 304 328 282 225 216 222 229 214 187 179 188 193 194 194 196 198 198 203 202
347 22 255 355 9 133 154 145 100 58 93 180 210 228 246 272 273 259 236 232 233 164 194 217 181 107 159 172 186 186 143 158 171 182 204 189 224 256 240 219 199 169 139 96 122 138 71 122 220 298 328 208 162 194 186 170 128 84 73 19 5 91 126 151 106 100 132 142 172 233 307 271 250 210 199 226 219 185 183 192 198 199 196 197 198 197 200 198
6 49 250 1 24 149 155 97 73 104 141 192 203 228 268 287 276 287 265 213 212 232 199 175 175 166 169 178 210 197 129 123 165 181 211 200 207 242 237 204 167 140 101 77 118 164 134 145 175 224 243 182 237 263 207 176 162 147 161 181 159 137 125 113 2 310 92 127 165 164 233 266 259 203 209 229 208 190 195 194 196 202 199 199 201 200 198 190
36 18 267 0 22 151 148 73 225 146 135 194 220 231 263 309 265 284 298 244 214 244 258 155 185 179 168 182 203 181 138 139 186 191 208 207 209 219 220 113 130 140 123 129 199 181 141 113 118 178 214 210 259 282 218 154 137 123 129 151 141 132 121 126 195 248 124 78 134 127 211 266 262 221 228 243 211 197 199 193 197 205 202 202 203 198 188 181
87 297 273 346 3 70 137 68 287 300 218 239 278 260 245 297 253 273 311 293 225 220 312 217 194 183 207 200 169 172 177 169 174 193 230 230 232 231 231 55 112 131 113 140 204 175 106 87 88 348 301 302 307 324 20 60 89 103 73 123 137 138 131 143 175 178 151 160 145 115 258 268 277 279 263 257 220 193 194 197 200 205 206 205 199 186 172 171
249 288 265 335 352 9 152 198 241 231 288 312 337 307 295 285 218 241 274 259 245 177 143 228 203 185 212 169 120 177 201 184 191 214 208 201 233 244 276 44 140 164 168 185 178 170 176 128 101 83 13 346 341 349 349 345 41 136 160 101 121 110 109 116 112 115 174 210 156 147 238 255 272 316 329 285 211 190 204 206 200 203 204 198 190 179 171 169
316 295 257 321 352 28 137 185 150 153 315 353 334 307 313 303 247 226 237 256 264 187 181 261 216 131 120 104 80 55 106 141 222 227 166 207 258 290 354 15 140 196 231 183 138 116 141 155 123 122 142 176 203 243 251 246 223 175 118 122 128 119 128 143 112 113 223 234 148 161 225 260 286 311 325 294 225 214 220 211 210 215 202 189 184 176 171 170
19 19 306 318 354 39 79 20 86 110 77 43 330 305 332 324 304 283 229 242 276 237 215 283 357 71 51 75 85 51 18 1 315 136 140 225 273 290 320 358 78 158 116 102 97 86 105 123 119 141 169 182 183 209 222 158 140 187 160 145 162 139 125 116 106 145 189 168 178 218 210 259 292 286 275 257 228 224 223 208 210 213 194 184 183 175 173 175
63 29 342 331 337 16 26 14 39 40 353 132 249 312 352 341 319 322 327 324 312 298 259 35 62 79 176 144 114 135 242 340 347 27 139 254 269 290 314 2 42 16 53 87 68 80 106 120 150 148 180 198 179 197 216 124 148 187 167 151 176 157 120 118 155 198 155 129 260 253 199 208 264 260 248 240 225 226 227 216 213 206 188 177 169 164 170 176
41 104 337 39 280 345 6 348 2 359 329 263 176 4 10 5 352 341 327 327 335 339 9 28 31 14 249 206 153 149 176 16 4 332 260 250 274 336 344 357 9 353 14 49 19 88 113 129 191 154 134 199 192 313 352 113 134 172 168 167 165 161 163 177 206 198 153 172 249 242 180 205 244 253 248 235 216 219 222 215 210 190 167 160 157 163 174 178
9 30 326 6 104 228 269 306 323 343 359 10 37 34 23 9 357 334 294 316 337 357 29 9 311 329 311 233 144 139 183 176 164 237 222 188 96 35 18 301 320 8 46 60 20 55 105 106 201 154 94 85 268 289 257 153 126 160 204 195 167 170 189 201 221 204 181 218 256 226 192 232 248 246 250 245 218 215 212 180 166 165 163 164 167 172 178 180
11 13 335 3 5 287 275 314 342 38 28 15 30 21 8 10 359 332 292 290 328 349 13 351 299 310 314 114 105 114 184 195 222 230 182 155 192 203 185 199 201 32 42 67 10 11 71 115 186 109 93 356 311 210 173 161 170 191 257 261 197 180 196 213 238 201 186 252 272 247 227 260 260 242 253 266 201 174 176 183 187 179 169 170 173 177 180 181
338 284 326 27 359 342 338 335 9 74 41 9 23 359 343 357 355 327 293 253 233 20 8 328 302 297 309 76 81 71 334 290 267 256 206 184 213 218 221 204 171 129 43 63 32 26 76 107 45 73 100 280 294 147 115 19 89 162 305 278 240 207 193 208 209 182 180 215 246 245 239 257 265 252 261 273 197 180 195 198 188 177 173 173 177 181 182 181
351 309 342 32 318 355 10 345 2 63 76 359 351 335 320 308 325 332 317 295 285 102 22 333 318 299 1 48 54 349 316 289 267 266 259 244 241 233 242 224 151 135 135 126 70 33 112 124 128 109 134 257 283 24 35 19 34 299 278 234 203 191 201 225 246 220 203 171 175 219 231 241 263 267 243 243 213 206 213 200 183 180 180 180 181 179 178 182